Homer, AK

5:40 PM AKST on January 18, 2018 (GMT -0900)
Homer

Weather History for PAHO - November, 2013

Change the Weather History Date:

Monday, November 25, 2013

  Actual Average Record
Temperature  
Mean Temperature 34 °F -  
Max Temperature 36 °F 34 °F 51 °F (1936)
Min Temperature 32 °F 22 °F -7 °F (1963)
Degree Days  
Heating Degree Days 31    
Moisture  
Dew Point 29 °F    
Average Humidity 80    
Maximum Humidity 87    
Minimum Humidity 70    
Precipitation  
Precipitation 0.02 in - - ()
Sea Level Pressure  
Sea Level Pressure 29.78 in    
Wind  
Wind Speed 2 mph (NE)    
Max Wind Speed 7 mph    
Max Gust Speed -    
Visibility 7 miles    
Events Snow    
Averages and records for this station are not official NWS values.
T = Trace of Precipitation, MM = Missing Value Source: NWS Daily Summary

Daily Weather History Graph

Daily Weather History Graph

Search for Another Location

Airport or City:

Trip Planner

Search our weather history database for the weather conditions in past years. The results will help you decide how hot, cold, wet, or windy it might be!

Date:

Astronomy

Nov. 25, 2013 Rise Set
Actual Time 9:26 AM AKST 4:19 PM AKST
Civil Twilight 8:34 AM AKST 5:10 PM AKST
Nautical Twilight 7:41 AM AKST 6:03 PM AKST
Astronomical Twilight 6:52 AM AKST 6:53 PM AKST
Moon No Moon Rise 1:43 PM AKST (11/25)
Length of Visible Light 8h 35m
Length of Day
6h 52m
Waning Gibbous, 49% of the Moon is Illuminated
Nov 25
Waning Gibbous
Dec 2
New
Dec 9
First Quarter
Dec 17
Full
Dec 25
Last Quarter

Hourly Weather History & Observations

Time (AKST) Temp. Windchill Dew Point Humidity Pressure Visibility Wind Dir Wind Speed Gust Speed Precip Events Conditions
12:53 AM 33.1 °F - 28.9 °F 85% 29.93 in 10.0 mi Calm Calm - N/A   Clear
1:53 AM 32.0 °F - 28.0 °F 85% 29.91 in 10.0 mi Calm Calm - N/A   Partly Cloudy
3:53 AM 33.1 °F - 28.0 °F 82% 29.88 in 10.0 mi Calm Calm - N/A   Overcast
4:53 AM 33.1 °F 30.0 °F 28.9 °F 85% 29.85 in 10.0 mi NNE 3.5 mph - N/A   Mostly Cloudy
5:53 AM 35.1 °F 31.0 °F 28.9 °F 78% 29.84 in 10.0 mi NE 4.6 mph - N/A   Overcast
6:53 AM 36.0 °F 31.1 °F 30.0 °F 79% 29.82 in 10.0 mi NE 5.8 mph - N/A   Mostly Cloudy
7:53 AM 35.1 °F 32.2 °F 28.9 °F 78% 29.80 in 10.0 mi ENE 3.5 mph - N/A   Overcast
8:53 AM 36.0 °F 33.3 °F 30.0 °F 79% 29.79 in 10.0 mi North 3.5 mph - N/A   Overcast
9:53 AM 35.1 °F 32.2 °F 28.9 °F 78% 29.78 in 10.0 mi NW 3.5 mph - N/A   Mostly Cloudy
10:53 AM 34.0 °F - 28.0 °F 79% 29.76 in 10.0 mi Calm Calm - N/A   Overcast
11:53 AM 35.1 °F - 28.9 °F 78% 29.76 in 10.0 mi Calm Calm - N/A   Overcast
12:53 PM 36.0 °F - 28.0 °F 73% 29.75 in 10.0 mi Calm Calm - N/A   Overcast
1:53 PM 36.0 °F - 28.9 °F 76% 29.74 in 10.0 mi Calm Calm - N/A   Overcast
2:53 PM 36.0 °F 33.3 °F 28.0 °F 73% 29.73 in 10.0 mi East 3.5 mph - N/A   Overcast
3:53 PM 35.1 °F 31.0 °F 28.0 °F 76% 29.73 in 10.0 mi NE 4.6 mph - N/A   Overcast
4:53 PM 35.1 °F 30.1 °F 27.0 °F 72% 29.73 in 10.0 mi ENE 5.8 mph - N/A   Overcast
5:53 PM 34.0 °F 28.0 °F 26.1 °F 73% 29.73 in 10.0 mi NE 6.9 mph - N/A   Overcast
6:53 PM 35.1 °F 31.0 °F 26.1 °F 70% 29.73 in 10.0 mi NE 4.6 mph - N/A   Overcast
7:53 PM 34.0 °F 31.0 °F 27.0 °F 75% 29.74 in 6.0 mi NNE 3.5 mph - 0.00 in Snow Light Snow
8:05 PM 33.8 °F - 28.4 °F 81% 29.74 in 4.0 mi Calm Calm - 0.00 in Snow Light Snow
8:53 PM 34.0 °F - 28.0 °F 79% 29.76 in 3.0 mi Calm Calm - 0.00 in Snow Light Snow
9:24 PM 33.8 °F - 28.4 °F 81% 29.76 in 4.0 mi Calm Calm - 0.01 in Snow Light Snow
9:38 PM 33.8 °F - 28.4 °F 81% 29.76 in 2.5 mi Calm Calm - 0.01 in Snow Light Snow
9:47 PM 33.8 °F - 28.4 °F 81% 29.77 in 3.0 mi Calm Calm - 0.01 in Snow Light Snow
9:48 PM 33.1 °F - 28.9 °F 85% 29.77 in 3.0 mi Calm Calm - 0.01 in Snow Light Snow
10:14 PM 33.8 °F - 28.4 °F 81% 29.77 in 2.5 mi Calm Calm - 0.01 in Snow Light Snow
10:23 PM 33.8 °F - 30.2 °F 87% 29.77 in 2.0 mi Calm Calm - 0.01 in Snow Light Snow
10:30 PM 33.8 °F - 30.2 °F 87% 29.77 in 2.5 mi Calm Calm - 0.01 in Snow Light Snow
10:40 PM 33.8 °F - 30.2 °F 87% 29.77 in 5.0 mi Calm Calm - 0.01 in Snow Light Snow
10:53 PM 34.0 °F - 28.9 °F 82% 29.78 in 5.0 mi Calm Calm - 0.01 in Snow Light Snow
11:53 PM 33.1 °F - 28.9 °F 85% 29.80 in 4.0 mi Calm Calm - 0.00 in Snow Light Snow